ATLAS 5 CENTAUR DEB, 52044

Orbit data source: Space-Track

ATLAS 5 CENTAUR DEB, 52044 is space debris in HEO originally from a launch on Wed, 17 Oct 2018 UTC launched from the Air Force Eastern Test Range (AFETR). Debris objects in space refer to the collection of defunct objects orbiting the Earth. Examples of debris include non-operational satellites, rocket bodies, and fragments generated from explosions, collisions, or faulty payload assembly.

Loading next visibility...
Identifier
52044, 2018-079GN
Orbit
HEO
Country
Flag of USUS
Related business
Flag of USUnited Launch Alliance/Lockheed Martin (US)
Manufacturer
ULA Decatur
Mission
Spacecraft
Bus & Motor
Unknown
Mass
Unknown
Launch date (UTC)
2018-10-17 (8 years ago)
Launch vehicle
Unknown
Launch site
Air Force Eastern Test Range (AFETR)
Object type
Payload
Rocket body
Debris
Shape & HBR
Unknown shape, 1.1 m
Radar Cross Section
RCS unknown

Expand to show TLE details & history
Last TLE update: 1 month ago

TLE from 1 month ago
0 ATLAS 5 CENTAUR DEB
1 52044U 18079GN  26215.94823708 -.00000088  00000-0  00000-0 0  9994
2 52044  13.0008  35.7187 4296189 325.7497  12.7148  1.90889642 34788
Epoch: 2026-08-03T22:45Z
TLE epoch observation values (Epoch: 2026-08-03T22:45:27.683Z)
Latitude
0.00005°
Longitude
101.86638°
Altitude
10,149.356 km
Speed
5.806 km/s
True Right ascension
02h 23m 01s
True Declination
0° 00' 00"
Sunlit
Object was in daylight at epoch
Visualization orbit readout
Latitude
Unknown
Longitude
Unknown
Altitude
Unknown
Speed
Unknown
Apparent Right ascension
Unknown
Apparent Declination
Unknown
Sunlit
N/A
Visualization observer readout
Local Sidereal Time
12:35:15
Azimuth
Unknown
Elevation
Unknown
Doppler factor
Unknown
Orbital elements
Apogee altitude
32,868.219 km
Perigee altitude
9,280.148 km
Semi-major axis
27,452.32 km
Eccentricity
0.42962
Inclination
13.0008°
RAAN
35.7187°
Arg. of periapsis
325.7497°
True anomaly
34.0501°
Mean anomaly
12.7148°
Eccentric anomaly
21.89339°
Mean motion
0.47717 °/min
Orbital period
754.45 mins
BSTAR
0
Loading maneuver chart data...
Computing Atmospheric mass density...

Documentation

Showing up to 5 results
|